LogoCoinalyze
    Ad-Free Version Anasayfa Piyasalar Fonlama Oranları
    Vadeli işlem verileri
    • Toplulaştırılmış veriler (Madeni Paralar)
    • Bireysel grafikler
    • Küresel grafikler
    Alarmlar
    TA
    Bitcoin Ethereum BNB Ripple Tron ZCash Dogecoin Monero UNUS SED LEO Chainlink Cardano Stellar Lumens Bitcoin Cash Litecoin Hedera Cronos Polkadot Ethereum Classic Algorand Quant Cosmos VeChain Dash Bitcoin SV BitTorrent Terra Decred Tezos Iota The Graph THETA Decentraland Chiliz NEO MultiversX Golem Basic Attention Token Horizen Qtum 0x DigiByte Beam RIF Token FTX Token Holo FUNToken Zilliqa Ontology Nano aelf Enjin Coin Ravencoin Siacoin Mask Network Verge Status WINk Waves IoTeX iExec RLC Power Ledger Steem Kyber Network Crystal Lisk Ark Ardor WOO Network IOST WAX Icon Storj Loopring Wanchain Bitcoin Diamond AdEx Bitcoin Gold Augur OmiseGO NEM MonaCoin BitShares Ren Komodo V Systems Nuls Mithril SOLVE EOS Aion Maker Nebulas HedgeTrade Bread Fetch.ai TomoChain Polygon Fantom Waltonchain GXChain Bytom Metaverse ETP MaidSafeCoin QASH
    Sırala:
    Daha
    • API
    • Mum Desenleri
    • Bağış
    • İletişim
    • Site Haritası
    • Gizlilik Politikası
    • Sorumluluk Reddi Beyanı
    • Theme:
    Türkçe
    • English
    • Français
    • Русский
    • Deutsch
    • Nederlands
    • Português (BR)
    • Español
    • 한국어
    • 简体中文
    • 日本語
     
    Giriş / Kaydol
    Markets/ Pepe/ PEPE ve BRL/ PEPEBRL Binance
    İşlemler
    WL
    Sohbet
    İstatistikler
    Haberler
    ⦷
    AAA
    0.00001732 577035.00000000 17:01:02
    0.00001732 1066184.00000000 17:01:02
    0.00001732 577035.00000000 17:01:02
    0.00001732 577035.00000000 17:01:02
    0.00001734 81958386.00000000 17:00:27
    0.00001733 3894281.00000000 17:00:02
    0.00001732 577701.00000000 16:57:10
    0.00001732 577701.00000000 16:57:10
    0.00001732 577701.00000000 16:57:10
    0.00001732 577701.00000000 16:57:10
    0.00001732 577701.00000000 16:57:10
    0.00001732 15462995.00000000 16:57:10
    0.00001733 1151247.00000000 16:56:16
    0.00001733 49820553.00000000 16:56:04
    0.00001734 723921.00000000 16:56:04
    0.00001734 3116263.00000000 16:55:37
    0.00001737 1036269.00000000 16:52:11
    0.00001737 861941.00000000 16:47:42
    0.00001736 187811515.00000000 16:41:37
    0.00001736 20334200.00000000 16:41:37
    0.00001736 98228500.00000000 16:41:37
    0.00001738 18351500.00000000 16:40:21
    0.00001742 574053.00000000 16:35:30
    0.00001742 574053.00000000 16:35:30
    0.00001742 574053.00000000 16:35:30
    0.00001742 574053.00000000 16:35:30
    0.00001742 574053.00000000 16:35:30
    0.00001742 20637673.00000000 16:35:30
    0.00001743 648695.00000000 16:35:30
    0.00001743 574053.00000000 16:35:30
    0.00001743 574053.00000000 16:35:30
    0.00001743 574053.00000000 16:35:30
    0.00001743 574053.00000000 16:35:30
    0.00001743 574053.00000000 16:35:30
    0.00001743 14832540.00000000 16:35:30
    0.00001746 50.00000000 16:32:50
    0.00001746 11848600.00000000 16:32:50
    0.00001745 4196176.00000000 16:32:40
    0.00001745 676479828.00000000 16:32:31
    0.00001745 108218153.00000000 16:32:30
    0.00001745 3699300.00000000 16:32:30
    0.00001745 5567000.00000000 16:32:30
    0.00001745 455606300.00000000 16:32:30
    0.00001745 7907400.00000000 16:32:30
    0.00001745 12950048.00000000 16:32:21
    0.00001742 24158859.00000000 16:28:33
    0.00001742 574383.00000000 16:28:33
    0.00001742 574383.00000000 16:28:33
    0.00001742 574383.00000000 16:28:33
    0.00001742 574383.00000000 16:28:33
    0.00001742 574383.00000000 16:28:33
    0.00001745 287356321.00000000 16:24:53
    0.00001743 51475077.00000000 16:24:15
    0.00001744 25899156.00000000 16:24:15
    0.00001747 57133780.00000000 16:16:49
    0.00001750 1140066.00000000 16:14:12
    0.00001749 136849108.00000000 16:13:26
    0.00001748 5476892.00000000 16:13:26
    0.00001745 976759.00000000 16:07:01
    0.00001743 574383.00000000 16:06:09
    0.00001743 574383.00000000 16:06:09
    0.00001743 574383.00000000 16:06:09
    0.00001743 574383.00000000 16:06:09
    0.00001743 574383.00000000 16:06:09
    0.00001743 15479585.00000000 16:06:09
    0.00001743 574383.00000000 16:05:49
    0.00001743 574383.00000000 16:05:49
    0.00001743 574383.00000000 16:05:49
    0.00001743 39572906.00000000 16:05:49
    0.00001743 574383.00000000 16:05:49
    0.00001743 574383.00000000 16:05:49
    0.00001742 574053.00000000 16:01:27
    0.00001742 574053.00000000 16:01:27
    0.00001742 574053.00000000 16:01:26
    0.00001742 574053.00000000 16:01:26
    0.00001742 16045756.00000000 16:01:26
    0.00001742 574053.00000000 16:01:26
    0.00001744 159449368.00000000 16:00:48
    0.00001744 574053.00000000 16:00:48
    0.00001744 574053.00000000 16:00:48
    0.00001744 574053.00000000 16:00:48
    0.00001744 574053.00000000 16:00:48
    0.00001744 574053.00000000 16:00:48
    0.00001744 12609320.00000000 16:00:46
    0.00001744 574383.00000000 16:00:46
    0.00001744 574383.00000000 16:00:46
    0.00001744 574383.00000000 16:00:46
    0.00001744 574383.00000000 16:00:46
    0.00001744 574383.00000000 16:00:46
    0.00001744 15481235.00000000 16:00:46
    0.00001744 574053.00000000 16:00:46
    0.00001744 574053.00000000 16:00:46
    0.00001744 574053.00000000 16:00:46
    0.00001744 574053.00000000 16:00:46
    0.00001744 574053.00000000 16:00:46
    0.00001744 574053.00000000 15:58:02
    0.00001744 574053.00000000 15:58:02
    0.00001744 574053.00000000 15:58:02
    0.00001744 15481235.00000000 15:58:02
    0.00001744 574053.00000000 15:58:02
    Çıkış
    AAA
    Yardım
    🙂 🤣 😎 🤗 😛 😉 😜 🤑 🤔 😑 😴 😕 🙃 😲 😇 🙁 😢 😬 😟 😠 🕺 🏃 💪 ✌ 👌 👍 👎 👏 👋 🤝 🍺 🍻 🐋 🐟 🦈 🗽 🚄 ✈ 🛑 🚀 🏦 🌚 ⭐ 🌞 ⚡ 🏆 💰 💲 🔨 ❓ ❗ 💯 🔶 🏁
    ☺
    Giriş veya Kaydol ve sohbet
    24 Saat
    Değişim
    -3.51%
    Hacim
    52,879,201,968
    Yüksek
    0.00001811
    Düşük
    0.00001723
    7 Gün
    Değişim
    -12.13%
    Hacim
    359,672,952,089
    Yüksek
    0.00002077
    Düşük
    0.00001723
    30 Gün
    Değişim
    +17.42%
    Hacim
    1,587,656,755,753
    Yüksek
    0.00002350
    Düşük
    0.00001325
    Pepe price rallies 25% as whale demand and futures interest surge
    Key takeaways Pepe has gained 25% this week, including a combined 22% advance over the previous two days. Seven whale transactions worth more than $1 million each occurred Thursday, the highest...
    coinjournal.net
    Aug 21, 2026 08:41
    PEPE Supply on Exchanges Just Took a Massive Hit – What’s Next?
    A drop in PEPE exchange balances has added to bullish expectations despite muted trader interest.
    cryptopotato.com
    Aug 6, 2026 20:02
    PEPE Exchange Outflows Hit Nearly 2-Year High as Whales Accumulate
    Pepe (PEPE) recorded its largest single-day exchange outflow since November 2024, with 4.54 trillion tokens leaving trading platforms, signaling that holders are moving supply away from immediate...
    beincrypto.com
    Aug 6, 2026 04:57
    Meme Coin Based on White House Shooter Conspiracy Rallies 320%
    $HENRY surged 300% after a 2023 Pepe tweet appeared to name the White House shooter, fueling a viral time-travel meme. The post Meme Coin Based on White House Shooter Conspiracy Rallies 320%...
    beincrypto.com
    Apr 27, 2026 16:11
    PEPE surges 4% as market sentiment improves, eyes Key resistance breakout
    Key takeaways Pepe extends gains on Wednesday, stretching its rally from the 50-day EMA. Derivatives data show heightened retail activity as risk-on sentiment returns to the market. Pepe (PEPE) is...
    coinjournal.net
    Apr 22, 2026 11:44
    Why The PEPE Price Could Stage A 55X Rally To Reach New $0.0001 ATH
    The PEPE price has now started to edge back into bullish conversations after the recent inflows into the crypto market. The last time PEPE’s weekly chart printed the kind of structure now...
    newsbtc.com
    Apr 21, 2026 15:30
    Pepe (PEPE) surges 9%, drawing interest from whales
    Key takeaways PEPE is up 9% in the last 24 hours, making it one of the best performers among the top 50 cryptocurrencies by market cap. The rally comes amid renewed interest from whales and retail...
    coinjournal.net
    Apr 16, 2026 07:40
    Murad Says SPX6900 (SPX) Is Primed for a Rally — Is He Right This Time?
    Crypto influencer Murad Mahmudov claims SPX6900 (SPX) is stabilizing at the same market cap level where Dogecoin (DOGE) and Pepe (PEPE) consolidated before their explosive rallies. The...
    beincrypto.com
    Apr 5, 2026 21:36
    The Shiba Inu Of This Cycle: Analyst Shares Why It Is Better To Buy PEPE Now
    In the bull market cycle of 2021-2022, the Shiba Inu meme coin made waves in a way that changed the face of meme coins forever. This came after Dogecoin’s initial 36,000% rally, and Shiba Inu...
    newsbtc.com
    Apr 4, 2026 07:30
    PEPE Explodes by 18% Amid Altcoin Rally, BTC Tapped $74K: Market Watch
    The frog-themed meme coin is today's biggest gainer, followed by TAO, DOT, and BONK.
    cryptopotato.com
    Mar 16, 2026 10:56
    Should PEPE traders brace for volatility as short squeeze potential builds?
    The memecoin market has seen its collective market capitalization drop by 48% over the past year, and 6.9% over the past month, according to CoinMarketCap. According to Glassnode, the memecoin...
    ambcrypto.com
    Mar 7, 2026 18:00
    Komutu sohbete yazmanız yeterlidir. Takma ad1'i gerçek takma adla değiştirin.
    • /ignore nick1 Sohbet kullanıcısını engelle
    • /unignore nick1 Sohbet kullanıcısının engelini kaldır.
    • /ignorelist Engellediğiniz sohbet kullanıcılarını gösterin